User: anonymous   Login
Location: Unspecified
(0.0000°N, 0.0000°E)
Time: 20:37:22
(UTC+00:00)
Language:

S-56A Canister/Altair - Orbit

View from above orbital plane
View from above orbital plane
View from above satellite
View from above satellite

Ground track
Ground track

The orbit data is extracted from the following two-line orbital elements,

1    82U 61004B   16240.59002309 +.00000067 +00000-0 +83600-4 0  9996
2    82 038.8585 303.4306 1167161 217.2332 134.1595 12.25773695637237
Epoch (UTC): 27 August 2016 14:09:37
Eccentricity: 0.1167161
inclination: 38.8585°
perigee height: 640 km
apogee height: 2495 km
right ascension of ascending node: 303.4306°
argument of perigee: 217.2332°
revolutions per day: 12.25773695
mean anomaly at epoch: 134.1595°
orbit number at epoch: 63723

The dashed part of the orbit path shows where the satellite is in the earth's shadow,  

DLR